Weather History for Tacoma, WA

Change the Weather History Date:

Monday, March 19, 2012

  Actual Average Record
Temperature  
Mean Temperature 36 °F -  
Max Temperature 46 °F 52 °F 66 °F (1988)
Min Temperature 26 °F 35 °F 19 °F (1965)
Degree Days  
Heating Degree Days 30    
Moisture  
Dew Point 33 °F    
Average Humidity 77    
Maximum Humidity 98    
Minimum Humidity 55    
Precipitation  
Precipitation 0.03 in - - ()
Sea Level Pressure  
Sea Level Pressure 29.83 in    
Wind  
Wind Speed 6 mph (South)    
Max Wind Speed 16 mph    
Max Gust Speed 22 mph    
Visibility 10 miles    
Events Rain    
Averages and records for this station are not official NWS values.
T = Trace of Precipitation, MM = Missing Value Source: NWS Daily Summary

Daily Weather History Graph

Daily Weather History Graph

Search for Another Location

Airport:

Trip Planner

Search our weather history database for the weather conditions in past years. The results will help you decide how hot, cold, wet, or windy it might be!

Date:

Astronomy

Mar. 19, 2012 Rise Set
Actual Time 7:13 AM PDT 7:22 PM PDT
Civil Twilight 6:43 AM PDT 7:52 PM PDT
Nautical Twilight 6:07 AM PDT 8:28 PM PDT
Astronomical Twilight 5:30 AM PDT 9:05 PM PDT
Moon 5:37 AM PDT (3/19) 4:48 PM PDT (3/19)
Length of Visible Light 13h 09m
Length of Day
12h 08m
Waning Crescent, 8% of the Moon is Illuminated
Mar 19
Waning Crescent
Mar 22
New
Mar 30
First Quarter
Apr 6
Full
Apr 13
Last Quarter

Hourly Weather History & Observations

Time (PDT) Temp. Windchill Dew Point Humidity Pressure Visibility Wind Dir Wind Speed Gust Speed Precip Events Conditions
12:55 AM 28.6 °F 20.7 °F 27.3 °F 95% 29.88 in 10.0 mi South 8.1 mph - N/A   Clear
1:55 AM 28.0 °F 20.0 °F 26.8 °F 95% 29.90 in 10.0 mi South 8.1 mph - N/A   Clear
2:55 AM 26.8 °F 19.3 °F 26.1 °F 97% 29.90 in 10.0 mi South 6.9 mph - N/A   Clear
3:55 AM 27.7 °F - 27.1 °F 98% 29.90 in 10.0 mi Calm Calm - N/A   Clear
4:55 AM 27.1 °F 23.2 °F 26.6 °F 98% 29.91 in 10.0 mi ESE 3.5 mph - N/A   Clear
5:55 AM 26.2 °F - 25.7 °F 98% 29.91 in 10.0 mi Calm Calm - N/A   Mostly Cloudy
6:55 AM 28.6 °F 24.8 °F 28.0 °F 98% 29.91 in 10.0 mi ESE 3.5 mph - N/A   Overcast
7:55 AM 29.8 °F - 28.6 °F 95% 29.91 in 10.0 mi Calm Calm - N/A   Overcast
8:55 AM 32.9 °F - 29.5 °F 87% 29.91 in 10.0 mi Calm Calm - N/A   Overcast
9:55 AM 36.9 °F 33.1 °F 29.1 °F 74% 29.92 in 10.0 mi ESE 4.6 mph - N/A   Overcast
10:55 AM 40.8 °F 35.6 °F 28.6 °F 62% 29.91 in 10.0 mi South 8.1 mph - N/A   Mostly Cloudy
11:55 AM 43.5 °F 37.9 °F 30.4 °F 60% 29.90 in 10.0 mi South 10.4 mph - N/A   Overcast
12:55 PM 44.4 °F 40.5 °F 32.5 °F 63% 29.88 in 10.0 mi South 6.9 mph - N/A   Mostly Cloudy
1:05 PM 42.8 °F 35.8 °F 32.0 °F 66% 29.89 in 10.0 mi SSW 13.8 mph 18.4 mph N/A Rain Light Rain
1:25 PM 42.8 °F 38.6 °F 32.0 °F 66% 29.89 in 10.0 mi South 6.9 mph - N/A   Mostly Cloudy
1:55 PM 42.6 °F - 31.8 °F 66% 29.89 in 10.0 mi Calm Calm - 0.00 in   Overcast
2:55 PM 45.9 °F 40.0 °F 30.6 °F 55% 29.88 in 10.0 mi SSW 12.7 mph - N/A   Overcast
3:25 PM 44.6 °F 38.8 °F 32.0 °F 61% 29.88 in 10.0 mi South 11.5 mph 21.9 mph N/A Rain Light Rain
3:36 PM 44.6 °F 37.4 °F 32.0 °F 61% 29.87 in 10.0 mi SSW 16.1 mph - N/A   Overcast
3:47 PM 44.6 °F 38.1 °F 32.0 °F 61% 29.88 in 10.0 mi SSW 13.8 mph 20.7 mph N/A Rain Light Rain
3:55 PM 43.3 °F 37.2 °F 33.3 °F 68% 29.88 in 10.0 mi South 11.5 mph - 0.00 in Rain Light Rain
4:06 PM 42.8 °F 37.0 °F 33.8 °F 70% 29.87 in 10.0 mi South 10.4 mph - N/A Rain Light Rain
4:09 PM 42.8 °F 37.0 °F 33.8 °F 70% 29.87 in 10.0 mi SSW 10.4 mph - N/A Rain Light Rain
4:17 PM 44.6 °F 39.2 °F 33.8 °F 66% 29.87 in 10.0 mi SSW 10.4 mph - N/A   Mostly Cloudy
4:55 PM 44.1 °F 37.7 °F 34.5 °F 69% 29.85 in 10.0 mi SSW 12.7 mph - 0.00 in   Overcast
5:35 PM 44.6 °F 40.2 °F 33.8 °F 66% 29.84 in 10.0 mi SSW 8.1 mph - N/A   Overcast
5:38 PM 44.6 °F 39.2 °F 35.6 °F 71% 29.84 in 10.0 mi SSW 10.4 mph - N/A Rain Light Rain
5:52 PM 42.8 °F 39.3 °F 35.6 °F 76% 29.84 in 10.0 mi Variable 5.8 mph - N/A   Overcast
5:55 PM 43.7 °F 41.1 °F 35.1 °F 72% 29.84 in 10.0 mi South 4.6 mph - 0.00 in   Overcast
6:01 PM 44.6 °F 40.2 °F 33.8 °F 66% 29.83 in 10.0 mi South 8.1 mph - N/A   Overcast
6:21 PM 42.8 °F 39.3 °F 33.8 °F 70% 29.83 in 10.0 mi SE 5.8 mph - N/A   Overcast
6:31 PM 42.8 °F 38.6 °F 35.6 °F 76% 29.83 in 10.0 mi SE 6.9 mph - N/A   Overcast
6:55 PM 42.1 °F 40.2 °F 34.5 °F 75% 29.82 in 10.0 mi SSE 3.5 mph - 0.00 in   Overcast
7:39 PM 41.0 °F - 33.8 °F 76% 29.81 in 10.0 mi Calm Calm - N/A   Overcast
7:54 PM 42.8 °F - 33.8 °F 70% 29.80 in 10.0 mi Calm Calm - N/A   Overcast
7:55 PM 41.9 °F - 34.3 °F 75% 29.79 in 10.0 mi Calm Calm - 0.00 in   Overcast
8:35 PM 41.0 °F - 35.6 °F 81% 29.78 in 10.0 mi Calm Calm - N/A   Overcast
8:44 PM 41.0 °F - 35.6 °F 81% 29.77 in 10.0 mi Calm Calm - N/A   Overcast
8:55 PM 40.6 °F - 37.0 °F 87% 29.77 in 10.0 mi Calm Calm - 0.00 in   Overcast
9:26 PM 41.0 °F - 35.6 °F 81% 29.76 in 10.0 mi Calm Calm - N/A Rain Light Rain
9:48 PM 41.0 °F 39.0 °F 35.6 °F 81% 29.73 in 10.0 mi SE 3.5 mph - N/A   Overcast
9:55 PM 41.4 °F 38.4 °F 34.7 °F 77% 29.73 in 10.0 mi SSE 4.6 mph - 0.00 in   Overcast
10:12 PM 41.0 °F 38.0 °F 35.6 °F 81% 29.73 in 10.0 mi South 4.6 mph - N/A Rain Light Rain
10:55 PM 40.8 °F 36.9 °F 36.7 °F 85% 29.70 in 10.0 mi South 5.8 mph - 0.01 in   Overcast
10:57 PM 41.0 °F 38.0 °F 37.4 °F 87% 29.70 in 10.0 mi South 4.6 mph - N/A Rain Light Rain
11:42 PM 41.0 °F 34.7 °F 37.4 °F 87% 29.67 in 10.0 mi SSE 10.4 mph - N/A   Overcast
11:46 PM 41.0 °F 34.3 °F 37.4 °F 87% 29.67 in 10.0 mi South 11.5 mph - N/A Rain Light Rain
11:55 PM 40.6 °F 33.8 °F 37.6 °F 89% 29.66 in 10.0 mi South 11.5 mph - 0.02 in Rain Light Rain